Theta_e
326 327 329 330 331 330 330 325 327 335 336 336 335 334 333 330 329 326 323 320 317 319 321 323 326 329 332 333 331 328 330 331 331 333 333 333 333 333 332 332 329 323 321 321 319 317 316 315 315 315 313 313 311 310 309 310 315 315 313 312 314 318 319 321 322 322 321 323 323 323 323 321 318 315 314 312 311 311 311 311 314 319 324 322 317
319 324 328 330 331 331 331 328 325 332 335 336 336 335 334 333 331 327 324 322 319 319 320 323 327 328 331 332 332 331 332 332 331 333 334 333 334 334 333 333 331 325 322 321 320 317 315 314 313 313 312 312 312 309 307 306 307 307 307 309 310 311 315 318 319 320 319 320 321 322 324 325 323 317 315 315 311 310 311 314 320 325 326 324 321
314 319 325 328 331 331 331 331 326 328 334 336 335 336 335 334 333 328 326 325 321 320 321 323 327 330 331 332 331 332 332 331 331 333 334 333 334 334 334 333 332 329 325 322 321 319 316 315 313 312 311 310 311 310 308 307 306 306 306 307 307 307 310 312 315 320 319 316 318 322 324 325 322 316 318 321 316 313 315 317 320 323 324 322 321
314 316 321 326 329 331 331 332 329 326 331 335 335 336 335 335 334 330 329 328 324 323 323 323 327 330 332 332 332 333 333 332 332 333 334 334 334 334 334 334 333 332 329 325 322 321 317 314 313 311 310 309 309 309 308 307 307 307 306 306 307 307 308 309 313 317 316 314 315 320 322 324 322 318 320 322 319 319 321 322 321 321 323 320 319
313 315 318 323 327 330 331 332 332 329 329 332 334 336 335 335 334 332 331 330 328 325 324 323 325 328 332 333 333 334 334 333 333 332 333 333 334 334 334 334 334 333 332 328 324 323 320 316 313 311 310 309 308 308 307 307 307 307 306 305 306 307 308 309 310 312 312 311 313 319 322 323 324 322 321 319 316 317 321 322 323 323 324 323 319
309 312 314 318 324 328 331 331 332 331 329 330 332 335 336 335 334 333 333 331 330 328 327 325 324 327 329 332 333 333 334 334 333 329 329 331 332 333 333 334 334 333 332 328 326 324 320 317 315 313 311 310 309 308 307 307 306 307 306 306 306 307 308 309 309 309 308 310 317 323 324 323 322 322 320 317 313 311 313 315 318 321 321 322 320
306 309 309 313 319 323 328 330 331 332 331 330 330 333 335 335 335 334 333 333 332 332 330 327 326 328 328 330 333 334 333 332 331 328 328 330 330 331 333 334 334 334 332 326 325 325 321 319 317 315 313 311 311 309 308 307 306 307 306 307 306 307 308 308 309 308 309 317 322 325 325 324 323 320 316 315 313 311 312 309 312 316 316 315 317
304 306 306 308 313 316 323 328 330 331 332 331 330 330 331 333 335 335 334 333 334 333 332 331 330 330 329 329 332 333 332 330 329 329 329 329 328 328 331 333 333 334 333 327 324 324 321 319 318 317 316 313 313 311 310 308 307 307 307 307 307 308 308 308 309 307 313 321 323 322 324 323 323 321 315 316 317 317 317 313 313 315 315 315 317
303 304 304 305 308 310 315 322 327 330 331 332 332 331 330 330 332 334 335 334 334 334 333 333 332 332 331 329 331 332 331 331 330 328 329 329 326 325 328 331 332 333 333 329 324 323 322 320 319 319 317 316 314 314 312 310 308 307 307 308 308 309 309 309 308 309 316 320 319 319 322 322 321 321 318 320 322 322 322 320 319 319 319 320 320
303 303 303 303 305 306 309 315 322 327 330 330 332 332 332 330 330 331 332 333 334 334 334 334 333 332 332 331 331 331 331 331 329 327 328 327 326 325 325 327 331 333 333 331 326 322 322 320 320 320 319 318 317 317 315 314 311 308 307 308 310 311 311 311 310 316 320 317 317 319 319 320 323 323 321 323 325 325 324 323 322 320 321 323 322
302 303 303 303 303 304 306 309 314 322 327 329 331 331 333 332 331 330 330 331 331 332 334 334 334 333 333 332 332 331 331 331 329 327 327 326 326 326 325 325 328 331 331 331 329 323 321 321 321 322 321 320 320 319 318 317 314 311 308 308 310 312 314 312 316 321 321 318 318 320 320 320 323 325 323 325 326 326 326 324 323 322 322 323 323
303 302 302 303 303 303 304 305 308 314 320 326 329 330 332 333 333 331 331 331 329 329 331 333 334 334 333 333 333 332 331 331 329 327 326 325 325 327 325 324 326 328 328 330 330 325 321 322 323 322 321 320 320 321 319 318 315 313 310 309 309 312 314 313 319 322 319 320 317 317 321 321 323 325 324 325 326 326 327 326 325 324 324 324 324
303 302 303 303 303 303 303 304 305 308 313 319 325 328 330 331 333 333 332 331 330 329 329 331 332 333 333 333 334 333 332 331 330 329 327 324 322 324 324 324 324 325 327 329 330 327 321 322 324 322 321 319 320 321 320 318 316 314 312 310 309 311 314 313 319 321 319 320 316 315 319 320 322 324 324 325 327 327 327 326 326 324 324 324 324
304 303 303 302 302 303 303 303 304 305 308 313 319 325 328 330 331 333 333 332 331 330 328 329 331 332 333 333 333 333 333 331 330 330 328 324 318 319 322 323 324 323 325 328 329 328 322 321 324 323 322 320 320 321 321 320 316 314 312 311 310 310 312 315 318 320 320 319 315 315 317 318 320 322 324 325 327 327 326 326 326 325 325 324 324
305 304 303 303 302 302 303 303 303 304 306 310 314 319 325 328 329 331 333 333 332 330 328 327 328 330 331 332 333 333 333 331 331 330 328 322 317 319 320 320 323 323 322 325 328 328 324 321 324 324 322 320 321 322 322 320 316 314 312 311 311 310 312 316 319 319 320 318 314 316 319 321 319 319 324 325 326 327 326 326 326 325 324 324 323
305 305 304 303 303 302 302 303 303 303 304 308 311 315 320 325 327 328 330 332 332 331 329 326 326 328 330 331 332 333 333 332 331 331 329 322 317 320 320 317 319 322 323 324 326 328 326 322 322 324 323 322 323 324 323 320 315 312 311 312 311 311 311 315 320 319 321 319 315 319 323 324 321 320 323 323 324 324 325 325 325 324 322 321 322
305 305 305 304 304 303 303 302 303 303 303 305 308 312 316 320 324 326 327 329 331 332 331 328 326 327 329 330 330 331 332 332 332 331 330 324 319 319 321 319 317 320 323 323 326 328 326 323 322 324 325 324 324 325 324 320 314 310 310 311 311 312 311 314 319 320 320 319 318 323 324 324 324 323 322 322 321 321 321 322 323 323 321 321 321
304 305 305 305 305 304 304 303 302 302 303 303 305 308 312 316 320 323 325 327 329 331 332 331 327 327 328 329 329 330 331 331 331 331 330 326 320 319 321 321 320 320 323 323 324 326 325 324 322 325 327 326 325 325 325 322 315 311 309 310 310 311 312 313 318 320 319 317 319 323 324 324 326 325 324 323 322 322 321 321 321 321 320 320 320
305 305 305 305 306 305 305 304 304 303 303 303 303 305 308 312 316 319 323 325 326 328 331 332 330 328 328 328 329 329 329 329 328 330 331 328 322 320 321 322 322 322 324 325 324 325 324 324 323 325 327 326 326 326 326 324 316 311 309 309 310 311 312 314 318 321 319 317 320 323 324 325 326 325 325 324 323 323 322 321 321 320 320 320 319
304 305 305 306 306 306 306 305 305 304 304 303 303 303 305 308 312 315 319 323 325 326 328 330 332 330 328 328 328 328 329 329 327 327 329 329 326 322 321 323 324 323 325 326 325 326 325 324 324 326 327 325 325 327 327 325 318 312 311 310 310 311 315 317 319 320 319 319 321 323 323 324 325 324 324 323 323 322 321 321 321 319 318 318 316
303 304 305 306 306 306 306 306 306 306 305 304 304 304 303 305 309 312 315 319 322 324 325 328 330 331 330 329 328 328 328 329 329 327 327 327 327 326 324 324 324 324 325 326 326 327 325 324 325 327 328 325 324 327 327 325 319 313 313 312 310 313 317 318 320 319 319 320 320 321 321 323 323 323 323 322 321 320 318 319 318 316 316 317 316
302 304 305 306 307 307 307 306 306 306 306 305 305 305 304 304 305 309 313 316 318 322 324 326 328 330 331 331 330 330 329 330 329 328 326 322 324 328 327 326 325 325 325 326 326 327 327 326 327 328 328 325 324 328 328 324 318 315 315 313 312 316 318 318 319 319 319 319 319 319 319 322 323 322 321 320 318 316 315 316 317 317 318 320 320
300 302 305 306 307 307 307 307 307 306 306 306 306 305 306 305 305 306 309 313 316 319 323 325 327 329 331 331 332 330 329 330 330 329 326 320 321 326 328 327 326 325 325 326 326 327 327 327 328 328 328 326 325 328 327 322 317 316 316 313 312 316 316 316 319 319 319 318 318 318 316 319 321 319 319 317 317 317 317 319 320 320 321 321 322
297 298 301 304 306 307 308 307 307 307 307 306 306 306 306 307 307 306 306 310 314 318 321 324 327 328 330 331 332 331 329 329 329 328 326 322 321 324 326 327 326 325 325 326 326 327 327 328 328 329 329 326 325 327 325 320 317 316 315 312 311 312 313 315 318 318 318 317 317 316 314 316 317 317 318 318 320 320 320 321 321 321 321 322 322
296 296 298 301 305 307 307 308 308 308 308 307 306 306 307 308 308 308 306 308 312 316 319 322 325 328 329 330 331 331 330 328 328 327 325 324 323 322 323 323 324 325 325 326 327 328 328 328 329 329 329 326 325 326 323 319 317 317 315 311 310 310 311 313 316 318 317 317 316 314 313 314 316 317 319 320 320 320 320 321 322 322 322 322 322
296 295 296 299 304 306 307 308 308 309 309 308 308 307 308 308 309 309 308 308 310 314 317 321 324 326 329 329 330 331 330 329 327 326 323 323 322 320 320 322 322 324 325 326 327 329 329 329 329 330 329 326 325 324 320 318 318 317 314 312 310 310 311 313 314 315 315 315 314 313 314 316 317 318 319 319 320 321 322 322 323 323 323 323 323
295 294 295 298 303 305 306 307 307 308 308 308 309 309 308 309 310 310 311 310 310 313 316 320 323 325 328 328 329 330 330 329 328 326 323 322 319 317 319 322 322 323 325 326 326 328 328 329 329 330 328 325 325 322 318 318 318 317 314 312 312 312 314 314 313 313 314 314 314 314 315 316 317 318 319 320 321 322 323 323 323 324 324 324 323
294 294 294 297 302 304 305 306 306 307 307 308 309 309 309 310 310 310 312 312 311 313 315 318 322 324 326 328 328 330 330 329 328 326 324 322 319 316 319 323 324 323 323 324 325 325 327 329 330 330 328 325 325 321 318 319 318 316 315 314 315 316 316 315 315 315 314 315 314 314 315 315 317 320 321 322 323 323 324 324 324 324 324 323 323
293 294 293 296 302 304 304 305 306 306 307 308 309 309 310 310 310 310 310 312 313 313 315 317 320 323 325 327 327 328 330 329 327 325 325 323 320 317 318 322 324 323 322 323 322 323 326 329 330 331 328 325 323 320 318 319 317 316 316 317 318 318 317 315 316 316 315 315 315 315 315 316 320 322 323 323 323 324 324 324 323 323 322 322 321
293 293 293 295 301 303 303 305 305 306 307 308 309 308 309 310 309 309 309 311 313 314 315 317 320 322 324 326 327 327 329 329 327 324 323 322 320 317 318 321 323 324 323 322 321 323 327 328 328 329 327 325 322 320 319 317 317 317 318 319 319 318 318 317 317 317 316 315 316 316 316 318 322 324 323 324 323 322 322 322 321 320 320 320 319
293 293 292 294 300 302 302 304 306 306 307 307 308 308 308 308 308 308 308 309 312 314 316 317 319 321 323 324 326 326 327 328 327 324 320 320 319 316 316 319 322 323 322 322 323 325 328 328 327 327 326 324 321 320 319 317 317 318 319 319 319 319 319 319 318 318 316 315 316 317 317 319 321 322 321 321 321 320 320 320 319 318 318 318 317
293 293 293 293 298 301 300 302 305 306 306 307 307 307 306 306 306 306 307 309 310 313 315 317 319 320 321 322 325 326 326 328 327 323 319 317 316 314 314 317 320 322 323 323 325 327 328 328 326 326 325 323 321 321 319 317 317 318 319 319 319 319 319 319 319 318 317 316 317 318 318 319 319 319 318 318 318 319 318 318 317 316 317 317 316
293 292 293 292 295 300 299 298 302 305 306 306 306 306 305 304 305 305 307 308 309 311 313 316 317 318 319 321 324 324 325 327 324 319 317 316 316 316 318 320 321 323 325 325 326 327 328 327 325 325 324 323 322 323 320 317 317 318 319 320 320 320 320 320 319 318 318 317 318 318 318 319 319 319 318 317 317 317 317 317 316 316 316 316 316
294 293 293 292 293 299 300 297 298 303 305 306 306 306 304 303 303 304 306 307 308 309 311 314 315 316 318 320 322 323 324 323 320 317 318 320 321 322 323 324 324 326 326 326 327 327 328 327 324 324 323 323 324 323 320 318 318 319 319 320 320 320 321 320 319 319 319 319 318 318 319 319 319 319 319 319 318 317 317 317 317 317 317 317 316
294 293 293 293 292 296 300 298 295 298 303 305 305 305 304 303 302 303 305 307 308 308 310 313 314 315 317 320 321 322 322 320 319 320 321 323 323 322 322 322 323 325 326 327 328 327 328 326 324 324 323 323 325 324 320 319 319 319 320 320 320 320 320 320 320 320 320 319 319 319 319 319 319 319 319 319 319 319 319 318 318 318 318 318 318
294 293 293 293 292 293 298 298 294 294 299 303 305 305 304 304 303 304 305 307 308 308 309 312 313 315 317 319 320 320 320 319 321 323 323 323 322 320 319 319 319 321 323 325 327 326 325 325 324 324 324 323 324 323 321 321 321 321 321 321 320 320 320 320 320 319 319 319 318 318 318 318 318 318 318 318 319 319 318 318 318 317 317 317 317
294 294 293 293 293 292 295 297 294 292 294 300 305 306 305 305 304 305 306 307 308 308 309 311 313 315 318 319 320 321 321 321 322 323 323 322 320 319 319 318 317 318 319 319 321 323 321 321 323 323 323 324 324 322 322 321 321 321 320 320 319 319 318 318 318 317 317 317 316 316 316 317 317 317 317 317 317 317 317 317 316 316 316 315 314
294 294 293 293 292 291 293 295 294 293 292 296 302 305 305 305 305 306 307 307 308 309 310 311 312 314 317 320 321 322 322 322 323 323 322 320 319 319 318 318 318 317 317 316 317 320 320 320 320 318 318 320 321 321 321 321 320 320 318 317 317 317 316 316 316 315 315 315 315 315 314 314 314 314 314 315 316 315 315 313 313 313 312 309 307
295 294 293 293 292 291 292 293 293 293 293 294 297 301 305 305 305 307 308 307 308 309 310 311 313 314 316 319 320 320 322 323 322 321 319 318 318 318 318 318 318 317 317 316 315 317 318 318 318 316 316 317 317 317 319 319 319 318 317 316 316 316 316 316 316 315 315 314 314 314 313 313 313 312 311 310 310 310 308 307 307 307 305 303 302
296 295 294 293 293 292 292 292 293 293 293 294 294 297 302 306 307 307 308 307 307 309 310 311 312 314 316 317 317 318 320 320 319 317 316 316 317 317 317 317 317 317 317 316 316 315 315 316 316 315 314 315 316 315 316 316 317 317 317 316 315 315 315 315 314 314 313 313 312 312 310 310 309 307 305 303 302 302 303 303 303 301 300 299 298
297 296 295 294 293 292 292 292 293 293 293 294 294 294 297 302 306 307 308 308 307 307 309 311 312 314 315 316 316 317 318 317 316 315 315 315 316 316 316 316 316 316 316 316 316 315 314 314 315 315 315 315 315 315 315 315 316 315 314 313 312 311 310 310 310 310 309 308 308 306 304 303 301 300 298 297 296 297 298 298 298 297 296 295 295
297 297 296 295 294 293 292 292 292 293 293 293 293 293 294 296 300 303 306 307 307 307 307 309 312 313 314 315 316 316 316 316 316 316 315 315 315 315 315 315 316 315 316 316 316 315 314 314 314 315 316 317 317 316 316 317 316 315 314 312 309 306 305 306 306 305 304 303 302 300 299 298 297 296 295 295 295 295 295 295 294 294 294 294 294
297 297 297 296 295 294 292 292 292 292 292 292 293 293 293 293 294 297 301 303 304 305 305 306 309 311 313 314 315 315 316 316 317 317 317 316 316 316 315 316 317 317 317 318 318 317 316 316 315 316 317 318 318 317 317 316 315 314 313 310 307 304 301 300 301 300 299 299 299 299 298 297 297 297 297 297 297 296 295 295 294 294 294 294 294
297 297 296 296 296 295 293 292 293 293 292 292 292 292 292 292 292 293 295 296 297 298 300 302 304 305 308 311 313 314 315 316 316 317 316 316 316 317 317 317 318 318 318 318 318 317 317 317 316 316 317 317 317 316 316 315 314 313 311 307 305 301 297 296 298 298 298 298 298 297 297 297 297 296 295 295 295 295 295 294 294 294 294 294 294
298 298 297 296 296 296 295 293 293 293 293 292 292 292 292 292 292 292 293 293 293 295 296 297 298 297 299 303 305 308 311 312 313 312 312 312 314 315 316 317 317 317 317 317 316 316 315 315 314 314 314 315 315 315 314 312 311 310 310 307 304 300 298 297 298 298 297 297 297 297 297 296 295 294 293 293 294 294 294 294 294 293 293 293 293
299 298 298 297 296 296 295 295 294 293 293 292 292 292 292 293 293 293 293 294 294 294 295 294 294 294 295 295 296 298 301 302 302 302 303 305 308 310 311 312 313 313 314 314 314 314 314 313 313 313 312 312 313 314 313 311 309 309 309 308 306 305 304 301 299 298 296 297 298 297 296 294 293 293 293 293 293 293 293 293 293 293 293 293 292
299 298 298 298 297 296 295 295 295 294 293 293 292 292 292 293 293 293 294 294 294 293 293 293 293 293 293 293 293 293 294 294 295 295 296 297 299 300 301 302 303 303 304 305 307 307 308 309 310 311 311 311 311 312 312 310 309 308 309 309 308 309 308 305 303 301 298 297 297 296 293 292 292 292 292 292 292 292 292 292 293 292 292 292 292
299 299 298 298 298 297 296 295 295 295 294 294 293 292 292 292 292 292 293 293 293 293 293 293 293 293 293 293 293 293 293 293 293 293 293 294 294 295 295 295 295 296 296 296 297 297 298 299 301 304 305 308 309 310 311 309 309 309 308 306 306 307 307 305 305 304 302 300 297 294 292 291 291 292 292 292 292 292 292 292 292 292 292 292 292
299 299 299 298 298 298 297 296 295 295 295 294 294 293 292 292 292 292 292 292 292 293 293 293 293 293 293 294 294 294 294 293 293 293 293 293 294 294 293 294 294 294 294 294 294 294 294 294 295 296 297 301 305 307 308 308 306 304 302 300 300 303 304 303 303 302 301 300 296 293 292 291 291 291 291 291 292 292 292 292 292 292 292 292 292
299 299 299 299 299 298 298 297 296 296 295 295 295 294 293 292 292 292 292 292 292 291 292 292 293 293 293 293 293 293 293 293 294 293 293 293 293 293 293 293 293 293 294 294 293 293 294 294 294 294 294 295 298 300 301 300 298 296 295 295 296 298 299 299 299 298 297 296 294 292 292 291 291 291 291 292 291 291 291 291 291 291 291 291 291
300 299 299 299 299 299 298 298 298 297 296 295 295 295 294 293 292 292 292 292 292 291 291 291 292 292 292 293 292 292 292 293 293 293 293 293 293 293 293 293 293 293 293 293 293 293 293 293 293 293 293 293 294 294 294 294 294 293 294 294 294 294 295 295 295 294 294 294 293 292 292 292 291 291 291 291 291 291 291 291 291 291 291 291 291
Wind_Speed
24 25 22 22 17 13 13 10 7 8 14 17 12 6 9 10 8 7 7 8 10 11 11 9 8 8 9 9 10 10 11 10 9 7 7 7 6 5 4 4 4 5 5 5 6 6 5 6 5 5 5 6 6 5 2 1 1 2 3 4 6 8 7 5 5 5 4 4 4 3 4 3 0 1 2 2 3 3 3 2 1 1 0 1 1
27 25 21 20 19 15 13 12 9 7 12 16 13 9 11 13 10 9 9 9 11 13 12 10 9 10 10 11 10 10 11 10 9 8 8 8 7 7 5 4 5 5 5 4 4 5 5 5 5 4 4 4 5 6 4 2 2 3 2 1 2 5 6 6 6 5 4 4 4 5 6 4 2 2 4 3 4 4 5 6 7 5 2 2 2
26 25 23 20 18 17 14 14 11 8 10 14 14 12 12 13 13 11 9 9 12 14 13 11 10 11 11 12 12 12 11 10 10 9 9 8 8 7 5 5 6 5 4 4 3 3 4 4 4 4 3 3 3 4 4 3 3 3 3 2 2 3 5 6 6 5 4 4 4 6 6 4 4 6 8 6 7 8 8 7 8 6 2 3 5
24 23 24 21 17 16 15 15 13 10 9 12 15 13 13 11 12 12 11 10 11 13 13 12 11 11 12 12 12 13 12 11 10 10 9 8 9 8 6 7 7 6 4 3 2 2 2 3 3 2 2 3 3 3 3 3 3 3 2 2 2 2 3 4 5 5 3 4 5 8 7 5 6 8 9 6 7 8 8 6 6 5 3 3 5
22 22 22 21 17 15 15 15 15 13 11 12 14 13 13 11 8 12 13 12 11 12 13 13 13 12 11 12 13 13 13 12 10 10 9 9 10 9 8 8 8 7 5 4 3 1 1 2 1 1 1 2 3 3 2 2 2 3 2 1 1 2 2 3 4 4 4 4 6 8 7 6 6 7 7 6 8 7 8 6 6 6 4 4 4
22 22 21 20 18 16 14 14 15 15 14 14 14 11 9 10 7 13 14 14 14 14 13 13 14 13 12 11 12 13 13 14 12 10 9 9 9 10 10 9 8 8 7 5 3 2 1 1 1 1 0 1 2 2 2 1 1 2 2 1 1 1 3 4 3 3 4 4 5 6 5 6 6 5 5 6 7 6 5 5 5 5 4 4 4
20 21 21 21 19 18 16 13 14 15 17 17 15 12 9 10 6 12 15 16 16 15 15 14 15 15 13 12 12 13 13 14 13 11 9 9 8 10 11 10 9 9 8 7 5 4 2 2 2 2 1 0 1 1 1 1 1 1 2 1 0 1 3 3 3 4 5 5 4 4 4 5 5 4 5 6 6 7 6 5 5 4 3 3 4
21 20 21 21 19 20 18 15 15 16 17 19 18 16 15 11 7 8 13 17 18 17 16 15 16 16 15 13 13 14 15 14 12 11 10 9 8 9 10 10 10 10 9 8 7 5 3 2 2 3 2 1 1 1 1 1 1 1 1 1 0 0 1 2 3 4 6 6 4 5 5 4 4 3 3 6 6 8 7 6 6 6 6 5 7
23 21 21 20 20 20 19 17 16 16 17 19 21 19 19 16 12 10 10 14 17 17 17 18 18 17 16 15 15 17 17 15 12 11 10 10 9 9 10 10 11 11 10 9 8 6 4 3 3 3 3 2 2 2 2 2 2 1 1 1 1 1 1 1 1 4 6 6 5 5 6 4 5 4 3 4 5 7 7 6 5 6 7 6 9
25 23 22 21 20 20 20 19 17 17 16 17 21 21 20 18 17 16 14 14 14 15 17 18 18 18 18 16 17 17 16 15 12 11 11 10 10 9 10 10 11 12 12 10 9 7 5 5 4 4 4 3 2 2 3 3 3 2 2 2 2 2 1 0 2 4 4 4 5 4 5 7 6 3 2 3 5 5 7 6 4 4 6 6 7
25 24 23 22 21 20 20 20 19 18 17 16 18 21 22 20 19 19 18 17 16 15 14 16 17 18 18 17 18 17 16 15 13 14 13 12 11 10 10 10 11 13 13 12 10 9 7 6 6 5 5 4 4 4 4 5 5 4 4 2 2 2 2 1 2 3 3 3 5 4 4 6 5 3 3 2 3 3 4 4 4 5 4 4 5
25 25 24 23 21 20 20 20 20 19 18 18 16 19 23 23 21 21 20 19 19 18 15 14 16 18 19 19 19 19 19 17 15 15 15 13 12 11 10 10 11 13 14 13 12 10 9 8 7 7 6 5 5 5 5 6 6 6 6 4 3 3 3 1 3 4 3 3 3 4 4 4 4 4 4 2 0 1 1 2 3 4 3 3 1
25 25 24 23 22 20 20 19 20 20 19 19 19 18 20 23 23 22 22 21 20 20 18 15 14 16 19 20 20 21 21 20 17 16 15 14 13 12 11 10 11 13 14 15 14 12 10 9 9 9 8 7 6 5 5 6 6 6 6 5 5 4 5 3 3 4 3 3 2 3 4 4 4 6 5 3 2 2 2 1 2 2 2 0 2
25 25 24 23 23 22 20 19 20 20 19 19 20 19 18 21 24 25 24 24 23 21 21 18 14 15 18 19 20 22 23 21 19 17 16 15 14 13 11 11 12 14 15 16 15 13 11 11 11 10 9 9 7 6 6 7 7 6 6 6 6 6 6 5 4 4 4 4 2 4 5 4 5 6 6 4 4 4 3 2 1 0 1 2 3
25 24 23 23 22 22 21 20 19 19 20 19 19 19 19 19 22 25 26 25 25 24 23 21 17 16 17 18 19 22 24 22 20 19 18 16 15 13 12 12 13 14 15 16 16 15 12 12 13 11 11 11 8 6 6 6 7 7 7 7 7 7 7 6 6 5 5 4 3 7 7 5 5 7 6 5 4 2 1 1 2 4 4 4 5
25 25 23 22 21 20 20 20 20 19 19 19 19 19 19 20 21 22 25 25 25 26 25 23 21 18 17 18 18 20 23 23 22 21 19 18 16 14 12 12 13 14 15 15 18 18 14 13 14 12 11 11 9 7 6 5 6 7 8 8 8 9 9 7 7 6 6 5 4 6 6 5 6 6 6 5 6 5 4 4 6 7 7 7 8
24 25 24 23 21 20 19 19 20 19 18 18 19 19 19 20 21 21 23 24 25 26 26 24 23 21 20 19 18 19 22 22 22 23 21 18 17 16 13 13 14 15 15 16 18 18 16 16 16 13 12 12 10 9 6 5 6 7 8 9 9 10 10 9 7 6 6 6 5 6 5 5 5 5 6 6 6 7 8 8 9 9 9 9 9
23 24 25 25 24 22 20 19 19 20 19 17 17 19 19 20 20 21 22 22 24 26 27 27 25 24 23 21 20 20 20 19 20 23 23 20 18 17 15 14 15 15 16 17 19 18 18 18 17 15 13 12 11 10 7 6 6 7 8 9 10 10 11 10 7 7 7 6 6 7 6 5 6 6 6 6 5 6 8 9 9 9 10 11 11
24 24 24 25 26 24 23 21 20 19 19 19 17 18 19 19 20 21 21 22 23 25 27 29 28 26 26 24 21 21 20 20 20 20 21 22 20 18 17 16 15 16 17 18 19 20 20 19 18 17 15 13 12 11 9 8 7 8 9 9 10 10 11 10 8 9 7 6 6 7 8 7 6 6 6 6 6 6 7 8 8 8 9 11 13
27 27 27 26 26 26 25 24 23 21 20 20 18 18 18 18 19 19 21 22 23 23 25 29 30 29 28 27 24 23 21 20 20 19 20 22 21 20 18 17 17 17 18 20 20 20 20 19 20 19 15 14 13 11 10 9 8 9 9 9 9 9 10 8 8 9 7 7 7 7 10 10 6 5 5 6 6 7 7 7 8 7 7 9 8
30 31 29 29 28 27 26 26 25 24 23 21 20 19 19 19 19 18 20 21 22 22 22 26 30 30 29 29 28 26 24 21 20 21 22 23 22 22 21 19 18 19 21 21 22 21 20 21 22 20 16 15 14 12 10 10 9 10 10 9 9 8 8 7 7 7 7 8 9 10 13 12 7 5 5 6 6 7 9 8 7 5 2 2 2
34 33 32 31 30 29 28 28 27 25 25 24 22 21 20 21 21 20 19 20 21 21 20 23 27 30 30 30 30 29 28 24 22 22 23 25 24 24 24 22 20 21 23 23 23 23 21 22 22 20 18 16 14 13 12 11 10 10 10 10 8 6 7 8 6 7 9 8 10 12 14 13 10 8 7 6 5 5 5 4 2 1 2 2 4
34 36 36 35 33 30 29 29 28 27 26 25 25 24 23 22 22 22 21 20 20 20 20 21 24 28 31 31 30 29 31 29 26 25 24 26 26 25 24 23 21 22 24 24 24 24 23 23 22 20 19 17 15 14 13 12 11 11 10 10 9 7 8 9 7 9 12 10 10 11 12 14 13 11 8 5 3 3 5 4 2 2 1 1 2
34 36 37 38 36 32 30 29 29 29 28 27 26 26 25 25 24 23 23 23 22 20 20 21 22 26 30 33 31 28 30 31 31 30 28 28 29 27 26 23 23 24 26 25 25 26 24 24 23 22 22 20 18 16 13 12 11 11 10 10 10 9 9 9 7 8 11 11 12 10 9 11 9 7 6 6 4 3 3 3 2 1 1 0 1
33 35 36 38 37 34 31 29 28 28 29 29 29 28 28 27 26 24 23 24 24 22 21 22 22 24 28 33 34 30 27 29 30 29 29 29 28 28 27 27 27 26 27 27 27 27 26 25 24 24 23 22 20 16 14 13 12 11 10 10 9 8 8 8 6 6 7 8 9 7 7 8 6 6 6 6 4 3 2 2 2 1 2 1 1
32 33 35 37 37 35 33 31 30 29 28 28 28 29 30 29 27 25 24 24 25 24 22 22 23 24 27 31 35 33 26 25 26 25 26 25 24 26 28 28 29 28 28 27 27 26 27 25 24 25 24 23 19 16 14 14 12 11 10 9 8 6 6 5 5 6 6 5 6 6 8 8 7 6 5 5 4 4 3 3 3 3 3 3 3
31 32 34 36 36 35 34 34 34 33 30 25 24 25 28 29 28 25 23 23 25 25 23 23 23 23 27 29 32 32 27 25 24 22 23 22 22 25 28 28 29 28 27 26 25 26 26 23 25 28 26 23 20 17 16 14 13 12 10 9 8 6 5 6 6 6 6 7 7 7 7 8 6 4 5 5 5 5 5 6 6 7 7 7 7
30 30 32 34 35 34 35 35 35 35 30 24 22 22 23 25 27 26 23 22 22 25 24 23 23 23 25 27 30 32 29 27 25 22 20 19 19 23 27 27 26 27 27 26 25 25 24 23 27 32 28 24 21 18 16 15 14 12 11 10 8 7 7 7 8 7 7 8 8 7 8 7 5 4 5 6 7 9 10 11 12 12 12 11 10
28 29 31 33 34 33 33 33 33 33 29 24 23 22 22 24 26 26 23 21 20 23 24 22 23 23 23 25 28 30 29 28 28 23 21 19 17 21 26 27 24 24 26 26 25 25 24 23 25 30 28 23 20 17 17 16 15 14 12 11 9 9 9 9 9 8 8 9 9 9 9 8 10 13 13 12 13 14 15 14 13 13 11 11 11
27 28 29 30 33 33 32 31 31 31 28 26 26 24 23 22 23 23 23 21 19 19 21 21 22 22 22 23 25 27 26 27 28 23 21 19 17 20 24 26 24 22 22 23 24 24 24 21 20 26 27 21 18 18 18 18 18 17 15 14 12 11 11 11 11 11 11 11 11 11 11 11 13 17 17 16 15 14 14 11 9 8 6 7 7
26 27 28 28 31 31 30 29 29 30 30 29 28 25 23 20 19 19 19 19 17 16 16 18 20 21 20 20 22 23 22 27 28 21 20 19 18 20 21 25 25 21 20 21 23 22 23 21 17 24 26 21 20 20 21 22 22 21 18 17 15 14 13 11 12 12 12 14 14 13 13 14 13 11 11 11 10 7 6 5 3 2 3 4 4
26 26 27 27 28 30 29 29 28 28 30 31 30 27 25 22 20 18 17 16 14 13 12 13 17 18 17 18 21 22 22 26 25 19 19 17 16 19 20 23 24 22 21 22 22 22 23 20 19 25 24 22 23 23 24 25 25 23 21 19 17 16 15 12 12 12 13 15 15 14 13 14 15 13 12 11 11 10 8 6 5 2 4 5 3
25 25 25 26 27 28 28 29 28 27 28 30 32 31 30 26 23 20 18 16 12 10 9 10 13 14 14 17 20 19 20 23 21 17 16 15 15 18 18 20 21 22 22 22 22 23 23 21 22 26 25 25 26 27 28 27 26 24 22 21 19 17 16 15 14 14 15 16 16 15 14 14 15 16 15 14 14 13 11 9 8 5 4 3 4
24 24 24 25 25 26 27 28 28 27 26 28 32 34 33 29 25 23 20 18 14 9 7 7 9 9 12 16 17 16 17 19 18 17 15 14 15 13 12 16 19 21 21 22 23 23 23 21 25 28 27 28 29 29 28 28 26 24 22 20 19 18 17 17 16 16 18 18 17 16 17 16 15 15 15 15 15 14 12 10 8 6 5 4 2
24 23 23 23 24 24 24 25 27 26 25 26 29 32 34 31 27 23 20 18 14 9 7 5 5 5 9 16 17 16 16 16 15 15 13 11 10 6 5 1 5 11 17 22 24 23 23 25 29 31 29 30 31 29 25 25 24 22 22 21 20 19 19 19 17 18 20 20 18 18 18 18 17 16 15 16 16 14 13 12 9 8 8 8 8
23 23 22 22 22 21 21 22 24 25 25 26 27 30 33 31 27 24 21 15 10 8 9 4 1 1 4 12 17 17 16 16 15 13 12 13 12 10 10 10 10 7 3 12 15 19 22 26 31 33 33 32 29 26 24 24 23 22 21 19 19 20 21 21 20 20 21 20 19 19 18 17 16 15 15 15 14 14 12 9 7 7 8 8 10
22 22 22 22 21 20 20 21 22 23 23 25 27 28 29 29 28 27 21 13 13 14 12 7 2 5 4 7 13 17 17 16 16 16 16 16 12 10 10 9 10 13 9 7 5 7 12 14 18 24 30 32 28 26 26 23 21 21 20 19 19 20 19 19 19 19 18 18 17 17 16 16 15 15 14 12 11 11 10 7 6 7 8 8 9
22 22 22 20 19 20 20 21 21 22 22 24 26 27 26 26 28 29 24 19 23 21 16 12 7 6 7 9 12 15 17 19 19 19 18 15 12 10 10 9 8 8 8 10 13 12 12 10 8 9 11 14 15 16 18 17 18 17 16 15 15 14 12 10 11 12 13 13 13 12 13 12 12 11 10 9 9 8 7 6 6 7 8 8 8
21 21 21 19 19 19 20 20 20 20 21 22 24 25 25 25 26 28 27 27 29 26 23 21 16 12 12 12 12 12 16 21 20 18 16 12 11 9 8 7 5 4 5 8 13 15 15 13 10 10 11 9 8 7 6 8 11 11 11 11 10 9 9 8 8 9 10 11 11 11 10 9 8 7 5 5 5 5 4 4 5 6 7 7 8
19 20 20 20 19 19 19 20 20 20 20 21 22 23 24 24 24 25 27 29 30 29 27 26 22 19 17 16 14 14 18 21 19 15 13 11 10 9 7 6 3 2 2 4 8 11 11 9 7 7 7 4 5 4 4 5 6 9 11 10 10 10 10 10 9 10 10 11 10 9 8 7 5 4 3 2 2 2 3 4 5 6 6 7 7
17 19 20 21 20 19 19 19 20 20 20 21 22 23 25 24 23 24 26 27 27 28 29 27 26 23 20 18 17 17 17 16 15 13 13 12 11 10 10 9 6 5 5 6 7 6 6 5 3 3 2 2 6 8 9 10 10 11 13 13 12 11 10 9 9 9 9 8 8 7 5 3 2 1 2 1 1 1 2 4 4 4 5 6 6
15 17 19 20 20 20 19 19 19 20 20 21 21 23 24 24 23 23 23 24 24 26 28 27 26 24 22 21 19 17 14 10 11 10 10 12 11 10 10 10 9 8 7 6 7 7 6 7 6 7 7 7 9 12 14 14 13 12 13 14 14 12 10 10 9 9 9 8 6 5 4 3 2 2 1 1 1 2 3 3 3 4 5 5 6
13 14 16 18 20 20 20 19 19 19 19 20 20 21 21 21 21 21 21 22 22 23 24 24 23 21 21 21 19 17 14 10 9 7 7 11 11 9 8 7 7 7 5 6 7 9 10 11 10 8 10 11 11 13 15 14 13 12 12 12 13 13 11 10 10 9 8 7 6 5 4 3 2 2 2 2 3 4 4 4 4 5 5 6 6
13 13 14 15 17 19 19 19 19 18 18 18 18 18 18 18 18 19 19 20 21 21 21 21 20 20 20 19 18 16 15 13 12 8 7 11 11 9 7 5 6 6 6 6 7 9 10 9 9 7 8 11 14 16 16 14 12 13 11 10 12 12 10 11 12 10 9 8 6 5 4 3 2 2 3 3 4 5 5 5 5 6 6 6 7
13 13 13 14 15 17 18 19 19 18 17 16 16 15 14 14 14 15 15 16 17 18 19 20 20 21 21 20 18 17 14 14 13 11 12 14 13 11 9 7 7 7 7 7 7 9 10 10 9 7 5 7 10 14 16 14 13 12 9 7 9 8 9 14 13 10 10 8 6 5 3 2 2 2 3 4 5 5 5 6 6 6 6 7 7
14 14 14 14 13 14 16 17 18 17 16 16 15 14 13 12 12 12 13 14 15 18 19 20 21 22 21 21 21 20 18 17 17 16 16 15 13 12 11 10 10 10 9 9 9 9 10 10 9 8 7 6 6 10 12 12 12 11 6 4 5 5 8 15 13 10 10 8 6 6 4 4 4 5 5 5 5 5 6 6 6 7 7 7 8
13 14 14 14 13 13 13 14 16 16 16 15 15 13 12 12 12 13 13 14 15 18 18 18 19 19 19 20 21 21 20 20 20 19 18 17 15 15 14 13 13 13 12 12 11 11 10 10 9 9 9 9 6 7 10 10 11 9 4 3 3 4 6 11 11 10 11 10 9 8 7 7 7 6 6 6 6 6 6 6 7 7 8 8 9
13 14 15 15 14 13 13 12 13 14 15 15 15 14 13 12 12 12 12 12 13 14 15 15 15 15 15 16 16 17 17 18 18 18 18 17 17 16 15 15 15 15 15 15 14 14 13 13 12 11 11 11 9 7 8 11 10 6 4 3 4 5 7 8 8 9 10 11 12 11 10 9 8 7 6 6 5 6 6 6 7 8 8 9 9
12 13 15 15 15 15 13 13 12 11 12 13 14 14 13 12 11 10 10 10 12 12 12 12 12 12 12 12 13 13 13 14 14 15 15 15 15 15 14 14 14 15 15 15 15 15 15 15 14 13 13 12 11 9 9 10 8 5 6 7 6 8 10 9 9 9 9 10 12 13 12 9 8 7 6 5 5 5 5 6 6 6 7 7 8
12 12 14 14 15 15 14 14 12 11 10 11 11 12 13 12 11 10 9 9 9 10 10 10 9 9 9 10 10 10 11 10 11 11 12 12 12 12 11 11 12 12 13 13 14 14 14 14 14 13 13 12 11 10 9 9 8 8 8 8 8 10 10 9 10 9 8 9 10 12 12 9 8 7 6 5 5 4 4 4 5 5 6 6 7
11 12 13 13 14 14 14 14 13 12 11 9 9 9 10 11 11 10 9 8 8 8 8 7 7 7 7 8 8 9 9 9 9 9 9 9 9 9 9 9 9 10 10 11 11 12 12 12 12 11 11 10 10 9 8 8 7 7 7 7 6 7 7 7 8 8 9 9 8 11 11 9 7 7 6 5 4 3 3 3 4 5 6 7 8
Wind_Direction
356 357 356 0 347 299 285 275 269 346 2 349 327 259 240 228 219 218 222 231 231 232 233 237 235 229 228 222 207 201 210 218 221 221 217 203 184 179 172 147 127 111 98 86 79 72 66 55 44 31 27 22 17 24 23 62 148 216 218 216 202 199 197 180 181 174 162 138 109 87 59 51 78 204 227 242 221 229 229 212 163 99 152 282 306
345 352 352 359 354 319 289 282 275 318 357 357 337 296 261 232 220 217 222 230 231 239 239 240 244 237 232 230 232 232 226 226 225 229 230 222 204 185 181 176 154 134 113 96 82 73 67 58 50 36 26 22 13 14 12 341 286 271 292 293 173 190 186 178 181 172 171 155 126 105 93 79 51 89 100 93 109 119 123 128 118 104 138 156 128
340 346 349 357 357 336 305 288 279 291 331 352 345 318 286 240 218 214 220 231 233 237 239 240 244 242 233 230 241 247 238 236 236 238 237 235 235 211 193 199 180 164 143 118 98 76 67 55 46 37 24 20 10 11 14 353 315 298 334 22 91 147 163 169 171 172 168 155 149 108 96 93 70 86 99 101 104 107 107 120 123 115 126 135 149
341 343 346 352 353 344 322 298 283 280 298 332 343 330 307 270 220 213 221 226 236 239 240 238 240 243 237 231 236 244 239 239 242 239 236 232 239 231 220 218 196 184 176 155 131 82 58 59 45 36 26 15 9 11 13 3 336 332 5 46 69 105 146 163 169 183 177 156 138 103 92 85 75 88 100 108 111 115 109 108 120 119 86 96 151
340 340 342 346 346 343 332 313 292 279 280 301 326 333 322 304 234 217 228 224 232 239 244 243 241 244 245 239 229 231 231 234 234 228 227 222 226 221 224 225 205 203 204 191 169 121 4 29 31 30 33 13 10 6 4 356 337 352 22 56 74 103 134 159 172 186 183 162 121 103 105 98 88 93 98 104 113 124 130 130 124 118 94 92 133
338 337 338 339 341 340 332 324 306 285 275 279 298 319 329 321 251 222 235 231 230 232 237 243 244 243 246 250 236 225 223 225 219 216 222 215 220 219 224 227 215 220 213 197 194 204 275 327 330 332 12 37 15 355 353 335 339 30 45 56 107 139 141 150 163 172 166 149 112 103 115 111 107 104 99 102 107 102 108 124 123 126 132 130 104
337 334 335 334 335 337 331 328 319 297 279 272 275 282 298 327 284 228 235 236 237 235 233 235 240 243 242 245 239 228 221 221 214 215 222 213 221 225 226 225 218 223 211 194 200 211 227 271 298 305 303 152 19 339 339 320 314 76 84 71 278 153 152 150 151 150 132 124 114 118 125 119 113 106 99 82 71 65 59 70 90 109 126 125 83
339 335 334 333 331 331 331 330 325 310 288 272 267 267 271 294 303 253 244 243 245 242 238 234 235 239 239 239 237 231 223 221 218 218 223 221 227 232 229 225 221 223 214 200 203 212 224 251 276 293 293 259 247 285 296 285 265 153 126 135 206 163 169 150 139 127 116 126 143 145 138 129 115 110 98 63 46 52 49 56 60 66 82 80 78
341 338 333 332 328 326 328 331 325 316 301 277 267 267 267 268 273 273 261 254 255 249 242 239 235 236 236 234 235 231 222 218 217 222 228 229 230 234 232 227 223 221 218 210 210 216 225 241 256 273 275 269 267 280 294 287 275 230 189 179 179 172 166 161 119 108 117 137 149 144 141 144 128 113 98 64 48 48 48 71 62 54 72 62 77
342 338 333 331 327 325 325 326 321 316 308 287 270 267 270 267 264 266 265 259 262 259 252 247 240 241 241 236 237 236 229 220 217 226 229 232 233 233 235 234 226 219 223 220 218 220 226 236 246 257 261 273 286 302 310 305 298 283 251 215 198 193 195 257 82 113 131 139 129 126 143 142 130 128 132 68 55 51 54 91 102 68 73 52 62
340 337 333 330 327 325 322 319 317 314 311 300 279 268 269 268 263 262 263 261 260 261 261 258 248 245 247 244 242 240 238 229 222 230 229 230 232 230 236 241 231 223 228 229 225 222 225 233 240 249 255 272 289 301 307 308 306 294 280 253 226 210 230 300 100 151 161 140 128 127 142 127 123 169 177 86 49 44 57 83 89 75 81 65 58
339 336 333 329 326 323 318 315 313 312 309 307 296 276 268 267 264 260 260 261 258 256 257 258 253 247 247 247 243 236 235 231 226 230 229 229 230 228 235 242 240 233 233 235 231 223 225 232 237 247 254 267 280 295 306 310 305 295 288 272 253 224 238 243 148 193 181 158 147 135 154 128 134 173 160 131 23 6 63 58 65 68 65 61 57
340 336 333 329 325 322 318 313 310 308 306 304 302 291 274 267 265 264 260 259 259 257 255 253 254 250 247 246 243 236 232 231 225 226 230 231 231 228 230 235 242 240 237 238 237 227 226 232 237 246 254 263 273 290 308 306 300 290 286 277 267 244 240 242 184 206 198 187 165 137 169 159 162 170 150 134 109 93 109 89 55 62 70 280 257
340 337 333 330 326 323 319 314 310 305 305 302 299 299 289 273 264 264 261 258 257 257 256 253 250 247 250 249 247 241 232 228 225 224 227 230 233 232 231 228 234 241 240 239 240 233 228 232 237 246 251 258 263 283 301 296 292 283 278 270 263 253 243 239 207 206 213 211 158 145 158 151 171 170 154 152 133 105 101 106 92 127 178 239 254
338 337 335 332 328 323 319 315 310 303 302 301 298 297 295 283 268 263 261 258 254 253 254 253 250 243 247 251 251 246 234 228 226 225 226 230 232 231 235 232 230 238 243 241 239 235 231 235 239 245 251 257 259 275 292 287 290 286 276 265 255 250 242 226 214 213 219 220 150 150 154 149 169 166 167 181 175 144 89 146 216 234 247 253 255
337 336 336 334 330 325 320 315 311 305 299 298 298 295 291 289 281 271 264 260 253 250 251 252 253 247 243 245 249 246 238 231 227 228 227 229 231 228 236 239 233 233 239 241 238 233 235 241 241 245 252 255 255 261 278 283 292 292 280 267 255 248 241 222 214 215 219 224 163 159 169 167 169 167 183 196 203 221 227 223 235 244 255 255 247
342 338 336 334 333 329 324 318 313 309 302 294 293 293 289 287 286 282 275 268 257 249 248 249 251 251 246 241 242 243 243 240 235 235 230 227 227 227 232 238 236 230 232 236 234 233 238 246 242 242 247 249 250 254 267 280 289 289 279 267 256 249 244 231 215 209 218 218 182 180 185 184 187 183 195 206 218 231 232 235 244 248 254 257 256
349 344 339 336 334 332 329 325 320 315 310 299 289 287 286 286 285 284 282 276 265 253 247 244 244 247 247 242 240 239 241 244 242 241 235 228 224 226 227 232 234 229 229 233 234 237 243 246 241 237 241 245 248 252 264 278 287 283 274 264 255 248 244 236 214 208 214 199 181 189 189 195 204 198 207 212 222 236 235 243 256 256 254 261 270
353 349 343 339 335 332 330 327 325 321 318 312 299 288 283 285 286 285 282 276 271 263 250 243 240 240 243 243 239 238 237 239 240 238 235 231 225 225 227 228 229 229 228 230 232 237 242 244 238 235 237 244 248 251 259 271 281 277 269 260 251 244 242 235 216 211 205 185 178 193 204 207 202 197 214 222 225 239 242 253 264 264 262 270 277
359 356 349 344 339 334 329 326 325 324 323 320 313 302 290 284 285 287 284 276 272 271 260 248 242 237 238 240 239 238 236 237 237 234 232 232 228 225 227 227 227 229 230 230 231 234 239 239 235 233 230 236 245 248 254 265 273 273 268 258 248 239 233 223 218 214 201 199 193 211 223 210 209 217 223 230 233 248 253 261 276 279 276 281 285
2 0 355 348 343 338 332 327 323 321 322 320 318 313 304 293 286 287 285 280 275 273 267 257 249 241 235 234 236 236 234 235 236 235 234 235 233 228 228 228 228 231 232 231 232 232 233 233 233 231 227 230 240 244 251 261 264 269 267 259 246 229 221 206 212 219 208 208 202 220 225 211 225 245 231 241 255 269 263 260 278 288 279 315 28
4 2 0 356 349 343 337 331 325 320 319 318 318 317 313 305 295 290 287 285 280 274 270 262 254 246 238 232 232 232 232 230 230 233 236 237 237 235 231 228 230 234 235 234 233 232 230 231 233 229 225 228 234 234 244 254 257 264 264 259 242 217 217 207 200 216 216 206 203 222 224 215 227 238 241 255 260 255 235 221 241 178 116 69 60
5 5 5 2 356 349 343 336 329 324 321 317 316 315 315 313 305 297 291 289 285 276 270 263 256 248 241 235 231 229 228 227 231 236 237 236 234 234 232 229 232 236 238 236 234 235 232 233 234 229 228 228 227 228 236 246 250 256 259 255 240 224 220 213 203 216 223 214 214 227 223 220 229 239 242 229 195 182 172 157 133 125 122 79 71
4 6 6 5 2 357 351 343 336 331 326 320 316 314 313 313 312 305 296 292 290 282 270 263 256 249 242 237 234 232 231 231 235 240 239 236 233 231 231 234 236 236 237 236 236 237 235 236 232 227 231 225 220 224 230 238 245 249 251 247 239 235 224 216 210 217 227 224 228 237 224 221 226 221 205 188 185 181 179 169 137 157 179 120 80
2 5 5 5 4 360 356 351 346 340 331 323 317 314 313 313 312 310 303 294 292 289 276 263 254 248 242 236 233 234 237 235 235 237 236 235 235 233 234 238 239 235 235 236 237 236 235 236 226 224 230 223 217 218 222 230 237 241 242 238 230 225 216 208 205 205 217 225 234 231 191 185 181 170 173 188 200 180 178 187 169 188 193 191 205
2 3 3 3 3 360 356 353 350 346 338 327 318 314 313 314 313 311 307 298 292 291 282 266 254 247 242 234 230 231 234 235 235 235 233 232 231 228 230 236 238 236 235 236 238 238 240 238 228 228 228 217 213 211 215 223 228 233 229 221 209 193 186 183 187 187 185 193 201 178 160 168 173 174 185 192 188 178 178 181 172 165 154 147 154
2 2 2 3 2 360 357 355 351 348 344 334 322 316 313 315 317 314 308 300 292 291 287 272 256 247 243 235 226 225 227 231 233 233 233 232 226 220 225 233 236 235 237 240 242 242 247 247 234 232 226 211 207 206 210 215 218 223 214 202 187 167 158 157 158 159 157 154 155 154 162 179 187 193 200 191 177 166 149 136 130 126 124 121 116
2 1 2 3 3 1 1 359 354 350 348 345 336 326 320 318 320 319 312 302 294 291 290 280 262 250 244 239 229 220 222 227 227 229 232 231 227 222 224 231 235 235 237 240 243 246 252 252 236 231 228 212 201 201 206 209 211 209 198 188 173 161 159 158 156 153 148 145 152 159 165 172 167 160 169 160 150 144 129 122 122 117 113 113 110
2 1 3 5 5 4 4 3 360 356 353 354 350 340 331 323 320 322 319 307 297 293 293 288 271 257 246 243 238 225 218 223 224 222 227 229 229 226 226 230 235 236 236 239 243 246 250 251 235 226 223 208 195 197 201 205 204 196 189 183 173 169 168 169 173 173 165 157 162 165 164 162 136 125 129 126 123 128 123 118 119 111 102 101 98
2 2 4 6 7 7 8 7 7 5 3 3 358 348 338 327 320 324 323 314 305 297 293 289 275 265 254 247 249 238 221 221 222 218 222 226 227 226 225 229 236 236 235 239 242 246 252 255 238 220 214 202 194 195 198 198 192 186 185 187 185 182 180 183 187 189 185 175 173 169 163 165 145 126 128 128 120 120 120 117 112 102 92 87 84
2 4 4 6 9 11 11 11 13 12 11 11 4 357 349 337 331 332 326 316 312 302 291 287 278 271 262 254 254 244 221 215 216 212 216 218 220 222 218 223 231 235 232 236 240 244 252 256 229 208 205 199 195 194 196 194 188 186 187 190 193 192 190 192 193 194 195 187 183 181 174 178 177 158 153 154 150 147 143 147 149 122 92 79 87
3 4 4 6 10 13 14 15 16 15 13 14 10 5 1 355 349 346 335 323 318 309 297 289 282 275 266 258 247 232 214 208 209 212 218 214 215 218 215 220 227 234 234 235 239 241 247 245 215 200 197 194 194 193 195 193 190 190 189 192 196 197 195 194 197 197 197 193 190 192 191 193 197 198 202 204 203 210 216 220 225 195 107 86 93
3 4 4 6 10 13 17 17 17 17 14 14 13 12 11 7 1 356 347 335 327 319 314 305 289 277 266 251 231 213 201 200 199 201 205 205 214 220 222 228 232 239 240 238 240 241 246 235 208 201 196 193 195 194 195 192 190 191 192 197 199 199 200 196 199 205 204 201 199 200 203 207 208 210 215 219 219 221 221 220 217 201 160 123 100
3 5 4 5 10 13 17 19 18 17 17 16 13 13 15 14 9 4 356 344 333 328 334 324 296 279 265 240 207 183 187 192 188 186 193 209 223 223 225 235 239 244 246 245 243 241 242 227 205 200 195 196 199 198 195 190 190 193 195 201 205 205 204 200 202 213 215 208 207 210 211 213 215 217 221 225 227 229 232 234 228 223 228 227 206
3 5 5 4 8 12 15 18 20 19 19 20 16 14 18 21 16 8 2 351 335 338 357 339 295 286 264 231 192 159 170 183 181 188 195 200 196 149 101 137 239 253 249 242 241 237 227 211 202 201 198 197 197 195 194 192 193 199 201 204 208 208 205 206 209 215 216 211 210 213 213 212 214 219 223 224 225 231 242 249 249 250 257 264 265
3 5 6 4 6 11 16 20 21 21 21 25 22 18 18 24 26 20 11 1 355 13 19 4 237 206 237 215 187 164 169 176 171 173 166 155 147 121 92 71 62 51 247 224 223 219 207 199 198 200 199 195 191 191 194 195 198 204 209 212 212 210 206 207 208 210 213 213 210 207 206 209 214 218 219 218 223 233 241 245 252 261 265 272 270
3 5 8 4 4 10 19 24 23 20 24 28 28 23 19 24 35 35 24 27 52 54 39 32 120 146 139 166 164 155 153 151 146 143 141 140 133 122 113 99 80 68 61 63 78 161 178 184 189 191 193 191 189 193 193 194 200 205 210 213 212 210 206 203 201 202 207 208 204 202 204 208 209 210 209 212 224 235 241 246 259 268 270 269 270
4 5 8 4 5 14 21 25 24 20 23 30 33 30 23 24 39 44 38 49 64 66 64 64 82 126 133 131 129 132 134 134 136 136 135 135 130 131 132 121 102 79 64 58 65 88 109 112 127 136 150 164 171 183 188 195 201 202 203 202 202 204 203 205 205 204 206 206 205 206 209 210 207 205 205 211 224 233 242 255 265 266 268 274 280
5 6 9 7 8 16 22 25 26 22 20 27 34 35 31 28 37 47 46 50 60 65 69 74 80 93 112 121 121 131 136 131 130 127 121 120 124 138 154 141 124 105 82 83 84 83 89 93 89 83 83 94 107 127 163 190 194 191 192 188 184 191 199 207 215 218 217 215 217 218 219 222 223 223 219 218 225 234 247 265 273 270 269 278 286
5 6 9 11 11 14 19 24 26 23 20 24 30 34 36 34 34 42 45 46 54 61 64 69 76 81 91 95 96 105 113 114 114 109 103 102 105 111 134 141 140 173 147 126 112 87 82 85 74 70 77 98 131 144 178 196 192 183 182 183 181 184 193 199 205 211 210 208 210 212 215 220 226 231 230 224 223 235 254 266 271 273 274 277 282
2 5 9 12 13 14 18 23 24 22 22 25 26 30 34 36 36 39 44 43 44 53 60 65 69 72 75 76 78 85 88 93 95 91 94 99 102 100 109 117 116 132 142 150 151 124 96 99 106 126 144 205 190 190 200 206 208 194 181 175 173 173 176 181 184 188 189 188 190 190 189 186 177 192 200 210 238 260 266 267 270 279 287 287 289
357 359 6 11 13 17 19 23 24 20 24 29 28 28 30 31 35 37 43 48 44 44 51 58 64 69 72 72 74 78 77 79 83 84 95 100 105 109 113 119 124 133 139 139 150 167 169 164 178 189 197 210 202 195 194 196 202 203 192 177 164 156 156 164 168 170 171 165 166 166 165 161 155 179 206 304 311 306 285 278 284 290 292 293 295
351 353 359 8 13 18 21 23 24 20 22 31 32 30 31 30 33 36 40 49 51 48 48 52 59 68 76 79 80 85 92 99 95 93 107 108 114 126 132 137 140 147 160 161 159 171 179 179 187 205 206 197 194 195 194 196 199 198 191 179 166 154 146 155 159 155 159 160 164 170 172 183 196 231 283 296 287 284 280 284 289 289 289 291 295
348 349 351 1 10 16 21 23 26 23 20 28 35 33 32 31 32 38 42 47 52 55 56 56 59 63 72 80 86 92 100 105 105 106 104 102 106 116 128 141 151 153 158 168 165 163 167 173 179 195 211 202 193 190 191 196 197 189 183 175 168 157 146 157 160 154 159 165 170 177 184 206 238 269 279 278 275 274 275 281 283 284 290 294 300
349 350 348 352 4 13 19 22 26 27 21 22 33 36 34 34 36 43 52 58 60 62 62 62 62 63 64 71 76 80 86 91 96 98 92 89 92 96 100 107 119 124 129 141 143 147 150 152 161 169 190 209 204 194 189 189 187 186 190 176 163 171 176 172 165 160 168 171 175 187 204 217 238 257 259 261 263 268 272 277 284 291 298 303 309
347 351 351 348 354 5 14 20 24 27 24 18 24 33 34 32 36 42 50 57 59 60 60 59 60 62 63 67 71 74 77 80 81 83 83 83 83 83 84 87 93 97 101 112 120 129 136 138 148 157 160 173 204 205 197 192 183 180 196 199 187 228 210 182 171 167 173 182 191 194 201 209 223 237 246 257 263 272 279 282 291 298 306 312 318
345 348 352 351 349 353 2 14 21 24 26 21 19 27 33 31 31 36 44 49 53 55 56 57 59 62 65 67 71 74 76 78 80 81 81 82 82 82 84 88 92 95 98 102 107 111 115 120 125 132 140 141 157 196 198 189 180 170 176 204 219 245 214 194 189 181 180 189 197 194 197 208 220 232 243 257 266 275 284 291 299 306 314 320 323
345 347 351 354 352 349 349 358 12 21 25 23 18 20 28 34 31 33 43 52 57 59 58 59 60 62 64 66 68 72 74 77 80 81 82 83 85 87 89 94 97 99 101 103 104 105 107 107 108 111 115 117 124 156 177 175 174 173 174 184 203 191 180 193 198 193 193 192 192 195 198 206 217 229 242 255 265 277 289 299 306 310 315 319 322
353 352 353 354 354 352 347 346 353 8 20 25 22 17 19 28 33 32 37 51 61 65 63 63 63 63 65 67 69 70 71 74 76 78 80 82 84 86 90 93 97 99 100 102 101 102 103 102 101 101 101 104 114 136 159 167 171 174 170 165 170 168 170 185 188 194 205 195 193 198 197 202 213 224 239 251 264 277 289 299 307 315 322 326 329
4 0 359 357 355 353 349 346 343 347 0 17 25 22 15 17 26 33 34 41 54 65 68 69 70 71 73 75 77 78 78 78 79 80 82 84 85 88 91 91 93 95 95 95 97 97 97 97 98 98 100 104 113 128 144 153 154 148 147 149 155 162 173 188 189 195 207 201 200 199 196 200 209 220 237 246 259 275 288 305 318 329 336 337 338
9 7 5 2 360 356 351 347 342 339 340 351 12 25 21 13 14 22 30 33 39 52 62 72 80 84 87 88 88 89 91 91 91 92 93 94 95 93 93 93 91 91 90 91 93 94 95 95 97 99 104 109 114 124 134 137 138 138 139 144 154 167 181 194 195 199 207 212 208 197 196 201 206 218 231 236 250 269 289 310 328 337 342 342 342